Погода в Чайнате

Таиланд     15°12′03″N   100°10′14″E
темп.,
°C
ветер,
м/с
пор.,
м/с
влажн.,
%
обл.,
%
осадки,
мм/ч
давл.,
гПа
погр.,
м
7 мая, пт
пт701:00+28ююз2378100 0.0 101195
04:00+27ююв2279100 0.2 101140
07:00+26ю2382100 0.3 1012168
10:00+31ю116198 0.0 1013721
13:00+34в0149100 0.0 10101465
16:00+33ю1249100 0.0 10081409
19:00+30ю3464100 0.0 1009144
22:00+28ююз2570100 0.0 1010126
8 мая, сб
сб801:00+27ююз2573100 0.0 1009157
04:00+26ююв237545 0.3 100884
07:00+26ю117814 1.8 101060
10:00+32ю11555 2.2 1011663
13:00+36ююз21435 2.2 10081574
16:00+36ююз22395 0.0 10052187
19:00+33зюз224910 0.0 100624
22:00+27ююв497924 2.2 1010265
9 мая, вс
вс901:00+27ююв358154 2.4 1008168
04:00+26ююз128194 0.0 100775
07:00+27вюв117667 0.0 1009157
10:00+33з11558 0.0 1010832
13:00+36з224328 0.0 10071911
16:00+35з4346100 0.0 10041217
19:00+33зюз115326 0.0 100519
22:00+31зсз125648 0.1 100727
10 мая, пн
пн1001:00+28ююз25667 0.1 1006185
04:00+27ююв247591 0.0 1006154
07:00+28ююв247498 0.0 1008229
10:00+33ююз335381 0.0 1009929
13:00+36ююз344193 0.0 10061942
16:00+37юз333759 0.0 10032325
19:00+31зсз465766 0.1 1004172
22:00+28ю257043 1.3 1007165
11 мая, вт
вт1101:00+27ю387646 1.7 1006232
04:00+27ююз278235 0.0 1006252
07:00+28ю24788 0.0 1007212
10:00+33ююз34535 0.0 10081117
13:00+37юз44405 0.0 10052016
16:00+37ююз353587 0.0 10032247
19:00+33ююв224515 0.0 100333
22:00+31ю611564 0.0 1006442